Hourly Weather Ruś

Today, 22 April, Thursday

Time Temperature Precipitation Wind Pressure Humidity
00:00 +7°C° 0 mm 2 mps 746 mmHg 84%
01:00 +6°C° 0 mm 2 mps 746 mmHg 87%
02:00 +6°C° 0.1 mm 2 mps 746 mmHg 89%
03:00 +4°C° 0.1 mm 3 mps 746 mmHg 90%
04:00 +4°C° 0.1 mm 3 mps 747 mmHg 92%
05:00 +4°C° 0.3 mm 3 mps 747 mmHg 89%
06:00 +4°C° 0.3 mm 4 mps 747 mmHg 86%
07:00 +4°C° 0.3 mm 4 mps 748 mmHg 83%
08:00 +5°C° 0 mm 5 mps 748 mmHg 73%
09:00 +5°C° 0 mm 6 mps 748 mmHg 63%
10:00 +6°C° 0 mm 7 mps 748 mmHg 53%
11:00 +6°C° 0.1 mm 7 mps 748 mmHg 51%
12:00 +8°C° 0.1 mm 7 mps 748 mmHg 50%
13:00 +8°C° 0.1 mm 7 mps 748 mmHg 48%
14:00 +8°C° 0.1 mm 7 mps 748 mmHg 52%
15:00 +8°C° 0.1 mm 7 mps 748 mmHg 55%
16:00 +6°C° 0.1 mm 7 mps 748 mmHg 59%
17:00 +5°C° 0.2 mm 6 mps 749 mmHg 64%
18:00 +5°C° 0.2 mm 5 mps 749 mmHg 70%
19:00 +3°C° 0.2 mm 3 mps 749 mmHg 75%
20:00 +3°C° 0 mm 4 mps 749 mmHg 77%
21:00 +1°C° 0 mm 4 mps 749 mmHg 79%
22:00 0°C° 0 mm 4 mps 749 mmHg 81%
23:00 0°C° 0 mm 4 mps 750 mmHg 81%

Tomorrow, 23 April, Friday

Time Temperature Precipitation Wind Pressure Humidity
00:00 0°C° 0 mm 4 mps 750 mmHg 82%
01:00 -1°C° 0 mm 5 mps 750 mmHg 82%
02:00 -1°C° 0 mm 5 mps 750 mmHg 83%
03:00 -1°C° 0 mm 5 mps 750 mmHg 84%
04:00 -2°C° 0 mm 5 mps 750 mmHg 85%
05:00 0°C° 0 mm 5 mps 750 mmHg 82%
06:00 +1°C° 0 mm 5 mps 751 mmHg 78%
07:00 +2°C° 0 mm 6 mps 751 mmHg 75%
08:00 +3°C° 0.1 mm 6 mps 751 mmHg 65%
09:00 +4°C° 0.1 mm 6 mps 751 mmHg 56%
10:00 +7°C° 0.1 mm 6 mps 751 mmHg 46%
11:00 +7°C° 0.1 mm 6 mps 751 mmHg 46%
12:00 +7°C° 0.1 mm 6 mps 751 mmHg 46%
13:00 +7°C° 0.1 mm 6 mps 751 mmHg 45%
14:00 +5°C° 0.4 mm 6 mps 751 mmHg 53%
15:00 +4°C° 0.4 mm 6 mps 752 mmHg 62%
16:00 +3°C° 0.4 mm 5 mps 752 mmHg 70%
17:00 +2°C° 0.4 mm 5 mps 752 mmHg 68%
18:00 +3°C° 0.4 mm 4 mps 752 mmHg 67%
19:00 +1°C° 0.4 mm 4 mps 752 mmHg 66%
20:00 0°C° 0 mm 4 mps 753 mmHg 71%
21:00 -1°C° 0 mm 4 mps 753 mmHg 77%
22:00 -2°C° 0 mm 4 mps 753 mmHg 83%
23:00 -2°C° 0 mm 3 mps 753 mmHg 84%

Day after tomorrow, 24 April, Saturday

Time Temperature Precipitation Wind Pressure Humidity
00:00 -2°C° 0 mm 3 mps 753 mmHg 85%
01:00 -2°C° 0 mm 3 mps 754 mmHg 86%
02:00 -2°C° 0 mm 3 mps 754 mmHg 84%
03:00 -2°C° 0 mm 3 mps 754 mmHg 83%
04:00 -2°C° 0 mm 3 mps 754 mmHg 82%
05:00 -1°C° 0 mm 4 mps 754 mmHg 75%
06:00 0°C° 0 mm 4 mps 754 mmHg 68%
07:00 +3°C° 0 mm 4 mps 754 mmHg 61%
08:00 +3°C° 0 mm 5 mps 754 mmHg 54%
09:00 +4°C° 0 mm 6 mps 754 mmHg 48%
10:00 +5°C° 0 mm 6 mps 754 mmHg 41%
11:00 +7°C° 0 mm 6 mps 754 mmHg 42%
12:00 +7°C° 0 mm 6 mps 754 mmHg 42%
13:00 +7°C° 0 mm 6 mps 753 mmHg 42%
14:00 +5°C° 0.2 mm 6 mps 754 mmHg 49%
15:00 +5°C° 0.2 mm 5 mps 754 mmHg 56%
16:00 +3°C° 0.2 mm 5 mps 754 mmHg 63%
17:00 +3°C° 0.1 mm 5 mps 754 mmHg 64%
18:00 +3°C° 0.1 mm 4 mps 754 mmHg 65%
19:00 +1°C° 0.1 mm 4 mps 754 mmHg 66%
20:00 0°C° 0 mm 4 mps 754 mmHg 69%
21:00 -1°C° 0 mm 3 mps 754 mmHg 73%
22:00 -2°C° 0 mm 3 mps 755 mmHg 76%
23:00 -2°C° 0 mm 3 mps 755 mmHg 79%

25 April, Sunday

Time Temperature Precipitation Wind Pressure Humidity
00:00 -4°C° 0 mm 3 mps 754 mmHg 82%
01:00 -4°C° 0 mm 3 mps 754 mmHg 85%
02:00 -4°C° 0 mm 3 mps 755 mmHg 86%
03:00 -4°C° 0 mm 3 mps 755 mmHg 88%
04:00 -4°C° 0 mm 3 mps 755 mmHg 89%
05:00 -2°C° 0 mm 4 mps 755 mmHg 82%
06:00 -1°C° 0 mm 4 mps 755 mmHg 75%
07:00 +1°C° 0 mm 4 mps 755 mmHg 68%
08:00 +2°C° 0.1 mm 5 mps 755 mmHg 61%
09:00 +3°C° 0.1 mm 5 mps 755 mmHg 55%
10:00 +5°C° 0.1 mm 5 mps 754 mmHg 48%
11:00 +4°C° 0.3 mm 6 mps 754 mmHg 50%
12:00 +4°C° 0.3 mm 6 mps 754 mmHg 52%
13:00 +4°C° 0.3 mm 6 mps 754 mmHg 55%
14:00 +4°C° 0.3 mm 6 mps 754 mmHg 56%
15:00 +4°C° 0.3 mm 6 mps 754 mmHg 58%
16:00 +4°C° 0.3 mm 6 mps 753 mmHg 60%
17:00 +2°C° 0.1 mm 5 mps 754 mmHg 65%
18:00 +1°C° 0.1 mm 5 mps 754 mmHg 69%
19:00 -1°C° 0.1 mm 4 mps 754 mmHg 74%
20:00 -2°C° 0 mm 4 mps 754 mmHg 78%
21:00 -2°C° 0 mm 3 mps 754 mmHg 82%
22:00 -2°C° 0 mm 3 mps 755 mmHg 85%
23:00 -4°C° 0 mm 3 mps 754 mmHg 86%

26 April, Monday

Time Temperature Precipitation Wind Pressure Humidity
00:00 -4°C° 0 mm 3 mps 754 mmHg 87%
01:00 -4°C° 0 mm 3 mps 754 mmHg 87%
02:00 -4°C° 0 mm 3 mps 754 mmHg 87%
03:00 -5°C° 0 mm 3 mps 754 mmHg 86%
04:00 -5°C° 0 mm 3 mps 754 mmHg 86%
05:00 -2°C° 0 mm 3 mps 754 mmHg 77%
06:00 0°C° 0 mm 3 mps 754 mmHg 68%
07:00 0°C° 0 mm 4 mps 754 mmHg 59%
08:00 +3°C° 0 mm 4 mps 753 mmHg 56%
09:00 +4°C° 0 mm 4 mps 753 mmHg 53%
10:00 +5°C° 0 mm 4 mps 753 mmHg 50%
11:00 +6°C° 0.1 mm 4 mps 753 mmHg 47%
12:00 +7°C° 0.1 mm 5 mps 752 mmHg 45%
13:00 +7°C° 0.1 mm 5 mps 752 mmHg 42%
14:00 +7°C° 0.1 mm 5 mps 752 mmHg 46%
15:00 +7°C° 0.1 mm 5 mps 752 mmHg 50%
16:00 +7°C° 0.1 mm 5 mps 752 mmHg 54%
17:00 +5°C° 0 mm 4 mps 752 mmHg 60%
18:00 +3°C° 0 mm 3 mps 752 mmHg 66%
19:00 +3°C° 0 mm 2 mps 752 mmHg 71%
20:00 +3°C° 0 mm 1 mps 752 mmHg 73%
21:00 +2°C° 0 mm 1 mps 752 mmHg 75%
22:00 +1°C° 0 mm 1 mps 752 mmHg 77%
23:00 +1°C° 0 mm 1 mps 752 mmHg 77%

27 April, Tuesday

Time Temperature Precipitation Wind Pressure Humidity
00:00 +1°C° 0 mm 1 mps 752 mmHg 78%
01:00 +1°C° 0 mm 1 mps 752 mmHg 79%
02:00 +1°C° 0 mm 1 mps 752 mmHg 79%
03:00 -1°C° 0 mm 0 mps 752 mmHg 79%
04:00 -1°C° 0 mm 0 mps 751 mmHg 78%
05:00 +1°C° 0 mm 0 mps 751 mmHg 73%
06:00 +3°C° 0 mm 1 mps 751 mmHg 68%
07:00 +5°C° 0 mm 1 mps 751 mmHg 63%
08:00 +6°C° 0 mm 1 mps 751 mmHg 59%
09:00 +8°C° 0 mm 1 mps 750 mmHg 56%
10:00 +8°C° 0 mm 2 mps 750 mmHg 52%
11:00 +9°C° 0 mm 2 mps 749 mmHg 50%
12:00 +10°C° 0 mm 2 mps 749 mmHg 48%
13:00 +11°C° 0 mm 3 mps 748 mmHg 46%
14:00 +11°C° 0 mm 3 mps 747 mmHg 49%
15:00 +11°C° 0 mm 3 mps 747 mmHg 52%
16:00 +10°C° 0 mm 4 mps 746 mmHg 54%
17:00 +9°C° 0 mm 3 mps 746 mmHg 59%
18:00 +8°C° 0 mm 3 mps 745 mmHg 63%
19:00 +7°C° 0 mm 3 mps 745 mmHg 67%
20:00 +6°C° 0 mm 4 mps 744 mmHg 66%
21:00 +5°C° 0 mm 4 mps 744 mmHg 66%
22:00 +5°C° 0 mm 5 mps 743 mmHg 65%
23:00 +5°C° 0 mm 5 mps 743 mmHg 67%
Show more